Wind_Speed
28 25 24 27 27 26 27 27 26 25 24 24 24 24 24 23 23 22 21 21 22 21 21 21 21 21 22 21 21 21 21 21 20 19 17 17 16 15 15 16 16 16 16 16
28 26 25 26 28 28 28 27 27 26 25 24 23 23 24 24 22 23 22 22 21 20 21 21 21 21 21 21 20 20 20 20 19 19 18 17 16 16 16 16 16 16 16 16
29 27 28 28 26 27 27 28 29 28 26 25 25 27 27 25 23 23 23 21 21 21 21 21 21 22 21 20 19 19 19 19 19 19 19 18 17 17 17 17 17 18 17 17
28 28 29 28 26 26 27 28 28 29 27 27 26 27 27 26 25 24 24 23 22 22 21 21 22 22 21 20 20 20 19 19 19 19 19 19 19 18 18 18 18 18 17 17
27 27 27 27 26 27 28 28 29 28 28 28 29 28 28 27 26 26 26 25 23 23 23 23 22 21 21 20 19 19 18 18 18 18 19 19 20 20 19 18 17 17 17 17
27 26 25 27 26 26 28 29 28 29 29 28 30 30 29 27 27 26 25 25 25 24 23 23 22 21 21 20 19 19 19 19 19 19 19 19 19 18 18 17 17 17 18 18
26 26 25 26 25 24 27 29 29 30 31 31 31 31 29 28 26 25 24 24 24 23 22 22 22 21 21 20 19 20 20 19 19 19 19 19 18 17 17 18 18 18 18 18
26 27 28 26 23 25 27 27 28 30 29 29 30 29 27 27 25 24 24 24 23 23 22 22 22 21 21 20 20 20 19 18 18 18 18 18 19 19 19 19 19 19 19 19
25 26 26 25 25 27 28 27 27 28 29 28 28 28 26 26 25 24 24 24 24 23 23 22 22 21 21 21 21 20 20 19 19 19 19 19 19 20 20 20 20 20 20 19
24 25 25 25 26 26 26 25 25 25 27 26 27 27 27 26 25 25 25 25 24 24 24 24 23 23 22 22 22 21 21 22 22 21 21 21 20 20 20 20 20 20 20 20
25 26 25 24 25 26 26 25 24 24 25 26 27 27 28 26 25 25 25 25 25 25 24 24 24 24 24 24 23 23 22 22 23 23 23 22 22 21 21 20 20 20 20 20
24 26 26 24 26 26 25 24 23 23 24 25 26 25 26 25 24 24 24 24 24 24 24 24 24 24 24 25 25 24 24 24 24 24 24 23 23 22 22 21 20 21 21 21
22 23 26 26 26 27 26 25 23 24 23 24 25 24 24 24 24 23 23 23 23 24 24 24 24 25 25 25 25 25 25 25 25 24 24 23 23 22 22 22 20 21 21 21
21 21 22 23 24 25 25 24 23 23 24 24 24 23 23 23 24 24 24 24 24 24 24 24 24 24 25 25 25 26 25 25 25 25 24 23 23 23 23 22 22 21 21 21
20 20 20 21 22 23 23 23 23 24 24 25 24 22 23 23 24 24 24 24 23 24 24 23 24 24 24 25 25 25 25 25 25 25 24 23 23 23 23 23 23 22 22 23
19 19 20 20 21 20 21 22 23 23 24 24 23 22 22 23 23 23 23 23 23 23 23 23 23 24 24 24 25 25 25 25 25 24 24 23 23 23 24 23 24 24 24 24
17 18 17 18 19 19 19 19 20 20 21 21 22 22 21 22 22 23 23 22 22 23 23 23 23 24 24 24 25 25 25 25 25 24 24 24 24 24 24 25 25 25 25 25
16 16 15 15 16 17 17 17 18 19 20 20 21 21 21 21 21 22 22 22 23 23 23 23 23 24 24 24 24 25 25 25 25 25 25 25 25 25 26 26 26 26 26 27
16 16 15 15 15 16 17 18 18 19 19 20 21 21 21 21 22 22 22 22 22 22 22 22 23 23 23 23 24 24 24 24 24 23 24 25 25 25 25 26 26 27 27 27
14 14 14 15 16 16 16 17 18 19 20 20 21 22 22 23 23 23 23 23 22 21 22 22 22 23 22 22 22 22 22 22 22 23 23 24 24 25 25 26 27 27 27 27
14 14 14 15 16 16 16 17 17 18 19 19 20 21 22 22 22 22 22 22 22 22 22 22 22 22 21 21 20 20 20 21 21 21 22 23 24 25 25 26 26 26 26 26
14 14 15 15 15 16 17 17 18 18 19 20 21 21 22 21 22 23 22 22 20 20 21 21 22 22 21 20 20 20 20 20 20 21 22 23 24 24 24 24 24 24 25 25
14 14 14 15 15 16 17 18 18 18 19 20 21 21 22 22 21 21 21 21 21 21 21 21 20 20 20 19 20 20 20 20 21 21 21 22 22 22 23 23 23 24 24 25
14 15 15 15 16 16 16 17 18 18 19 19 20 20 20 21 20 20 19 20 21 21 21 20 20 20 20 20 20 21 21 21 21 22 22 22 22 22 22 23 24 24 25 25
14 15 15 15 15 16 17 17 18 18 19 18 18 19 18 19 20 20 19 19 19 19 18 18 19 19 20 20 20 21 21 22 22 22 22 23 23 23 24 24 25 25 25 26
14 15 14 14 15 15 16 16 17 17 17 17 17 17 18 18 18 19 19 19 18 18 18 19 19 19 19 20 20 20 21 21 22 23 23 23 23 23 23 24 25 26 27 27
14 15 15 15 15 14 15 15 15 16 16 16 17 17 18 18 18 18 19 19 18 18 19 19 20 20 19 20 21 21 21 22 22 23 23 24 24 24 24 25 26 26 26 26
Wind_Direction
228 228 231 235 235 232 229 229 233 231 236 247 254 257 262 263 264 265 262 262 263 265 268 273 277 278 278 276 276 277 276 273 272 274 275 278 282 285 286 287 289 288 288 290
228 229 232 231 231 233 233 232 233 232 235 246 253 258 264 264 262 263 262 260 263 267 269 272 276 279 280 280 276 276 275 273 269 269 271 274 277 280 284 287 290 289 288 288
233 232 232 232 232 232 237 237 235 233 235 242 248 255 260 263 264 262 259 262 266 270 272 273 276 279 279 278 277 277 274 270 268 266 267 271 273 277 281 285 287 288 286 286
236 235 234 234 234 236 237 238 238 235 235 238 244 249 255 259 261 261 260 263 265 269 270 273 275 276 276 276 275 276 277 273 270 267 266 268 270 275 277 280 282 283 285 285
233 236 236 233 231 231 235 238 237 237 238 239 242 248 253 256 258 260 261 262 264 268 271 273 273 274 274 275 275 276 275 275 272 271 268 268 271 272 274 277 279 280 281 284
231 233 237 234 232 232 237 240 237 237 239 240 243 247 253 256 257 259 260 261 263 266 269 272 272 272 274 273 274 273 274 274 273 272 271 272 273 273 273 272 273 277 280 282
234 236 238 235 232 229 233 236 235 236 236 236 241 246 252 255 255 256 259 260 261 264 268 270 272 274 274 272 271 272 271 270 271 271 272 272 271 272 271 270 272 275 279 280
233 235 237 236 235 233 234 236 238 238 238 238 242 246 250 253 254 254 257 259 260 262 265 268 270 271 271 271 269 268 267 267 268 270 272 272 271 270 270 271 273 275 275 276
231 233 236 237 237 237 238 237 237 239 241 242 242 244 247 250 251 252 255 257 258 260 262 264 266 267 270 271 269 266 265 266 268 269 271 271 271 272 270 270 272 275 275 276
232 233 236 237 236 237 239 238 237 240 243 243 243 244 245 247 249 252 257 258 258 258 259 262 264 266 268 270 270 268 268 268 269 268 271 271 271 270 270 270 271 273 275 276
233 233 236 239 239 240 241 240 238 241 245 246 245 245 246 247 249 252 256 258 259 262 262 263 264 264 265 268 269 268 268 269 269 269 269 270 270 272 272 272 275 276 276 276
235 236 237 237 237 240 241 243 242 243 248 247 245 245 244 245 249 252 257 258 260 262 262 263 263 263 265 266 266 266 266 267 268 268 267 267 269 272 274 273 274 276 277 278
235 236 236 237 238 238 241 245 246 246 248 247 243 245 245 246 247 252 258 260 262 262 262 263 264 264 265 265 264 265 264 265 267 266 266 267 268 270 274 275 275 276 277 279
236 238 238 238 239 239 239 241 243 245 245 245 245 247 245 246 249 254 258 260 262 262 262 263 265 267 267 266 265 265 264 264 264 265 264 265 268 271 273 275 275 276 277 279
238 239 237 237 240 241 239 239 242 244 243 246 250 250 248 248 251 256 258 260 261 262 262 264 266 268 269 266 265 265 265 263 264 264 264 265 268 271 273 275 276 277 278 278
242 241 241 241 243 242 239 239 241 243 244 245 249 248 250 250 251 256 257 260 261 263 264 267 268 269 269 268 266 266 264 264 264 263 264 267 269 271 273 274 275 276 277 277
241 239 241 241 241 240 241 242 240 240 242 246 248 248 250 251 255 258 260 262 262 263 265 267 268 268 267 267 267 266 263 264 263 263 264 267 270 273 273 274 275 276 277 278
244 243 243 240 239 238 239 241 240 241 243 246 248 248 250 255 259 262 263 265 265 265 266 267 267 268 267 266 268 266 264 263 265 266 266 267 269 271 273 274 274 275 277 277
244 243 242 243 241 241 244 246 245 245 246 247 249 251 252 256 261 263 264 266 267 266 267 267 269 269 269 266 268 268 267 266 267 268 269 270 271 272 273 274 274 274 275 276
241 241 243 243 243 246 247 248 249 249 250 252 253 253 255 258 261 262 262 264 266 265 265 266 270 272 270 268 268 268 267 267 268 269 269 271 271 272 274 276 276 275 275 276
241 242 245 246 247 247 248 250 252 252 253 255 258 258 259 262 263 264 265 265 264 264 264 266 268 269 269 268 267 266 268 267 267 268 270 272 274 275 277 278 278 277 276 276
242 243 247 249 249 251 251 251 253 256 257 258 260 261 262 264 266 264 264 267 265 263 264 265 267 267 266 267 266 266 267 268 268 270 274 276 277 278 279 278 279 278 276 276
245 245 247 249 250 250 252 253 254 255 258 261 262 263 263 265 266 265 267 268 267 266 266 266 266 264 266 268 267 269 271 272 272 274 277 279 280 280 279 279 279 279 279 279
245 245 248 250 252 253 254 255 256 257 260 262 264 265 265 265 263 265 268 268 267 266 266 267 267 265 264 267 269 269 271 273 274 276 279 281 282 282 281 280 280 280 281 281
246 248 250 252 253 254 256 258 259 259 260 261 262 263 266 266 263 264 268 268 265 265 267 267 266 265 263 263 266 269 271 273 275 276 277 279 280 281 281 281 281 282 282 281
250 251 251 254 258 259 259 259 260 262 261 261 262 264 268 270 269 267 268 268 268 268 270 271 272 272 269 268 269 270 271 273 274 275 277 279 280 281 283 283 283 283 283 283
256 255 255 257 260 263 264 264 265 265 263 264 265 266 268 271 272 272 273 272 270 270 271 272 273 274 276 277 276 275 275 275 275 276 277 278 278 279 281 283 285 285 285 283
Height
5777 5781 5784 5788 5790 5793 5796 5799 5803 5806 5807 5807 5808 5807 5809 5810 5811 5811 5812 5814 5815 5816 5816 5817 5817 5817 5817 5816 5816 5816 5816 5816 5816 5817 5816 5816 5816 5816 5816 5815 5815 5815 5814 5813
5771 5775 5777 5779 5783 5787 5790 5793 5796 5799 5801 5801 5801 5803 5803 5804 5806 5807 5807 5808 5810 5811 5812 5812 5812 5812 5812 5811 5811 5811 5811 5811 5811 5812 5812 5812 5812 5812 5812 5812 5811 5811 5810 5810
5764 5768 5770 5773 5777 5780 5783 5786 5789 5792 5795 5797 5797 5797 5798 5799 5800 5801 5802 5804 5805 5805 5806 5807 5807 5807 5806 5806 5806 5806 5806 5806 5806 5806 5807 5807 5808 5808 5808 5808 5808 5807 5807 5806
5757 5760 5762 5769 5770 5773 5776 5779 5782 5784 5786 5789 5791 5791 5792 5794 5795 5796 5797 5798 5799 5800 5800 5801 5801 5801 5801 5801 5801 5801 5801 5801 5801 5801 5802 5802 5803 5803 5803 5803 5803 5803 5802 5802
5750 5752 5755 5760 5762 5765 5769 5771 5774 5776 5779 5782 5784 5786 5787 5789 5790 5791 5792 5793 5793 5795 5795 5795 5796 5796 5796 5796 5796 5796 5795 5795 5796 5796 5797 5797 5797 5798 5798 5798 5798 5798 5798 5798
5743 5746 5749 5754 5756 5759 5763 5764 5767 5770 5773 5776 5778 5780 5781 5783 5784 5785 5786 5788 5789 5789 5789 5789 5790 5790 5791 5791 5791 5791 5791 5791 5791 5791 5791 5792 5792 5793 5793 5793 5793 5793 5793 5793
5737 5740 5743 5746 5749 5752 5757 5759 5760 5762 5765 5768 5771 5773 5775 5777 5778 5780 5781 5782 5783 5783 5784 5784 5784 5785 5785 5785 5786 5786 5786 5786 5786 5786 5786 5787 5787 5787 5788 5788 5789 5789 5789 5788
5732 5734 5739 5740 5743 5746 5748 5750 5752 5755 5757 5760 5764 5766 5769 5770 5772 5773 5775 5775 5777 5778 5779 5779 5779 5779 5779 5780 5780 5780 5781 5781 5781 5781 5782 5782 5782 5782 5783 5783 5783 5784 5783 5783
5727 5730 5732 5734 5737 5739 5741 5744 5746 5749 5751 5754 5757 5760 5762 5764 5766 5767 5768 5769 5770 5772 5773 5773 5774 5774 5774 5774 5775 5775 5776 5776 5776 5776 5777 5777 5776 5776 5777 5777 5777 5778 5778 5778
5721 5724 5726 5728 5730 5732 5734 5737 5740 5742 5745 5747 5750 5753 5755 5757 5759 5761 5761 5763 5764 5765 5766 5767 5767 5768 5768 5769 5769 5769 5770 5770 5770 5771 5771 5771 5771 5771 5771 5772 5772 5772 5772 5772
5715 5718 5720 5723 5725 5726 5729 5731 5734 5737 5739 5741 5744 5746 5748 5751 5753 5754 5755 5756 5757 5758 5759 5760 5761 5761 5762 5762 5763 5763 5764 5764 5764 5765 5765 5765 5765 5765 5765 5766 5766 5766 5766 5766
5710 5713 5716 5718 5719 5721 5723 5726 5728 5731 5734 5735 5737 5739 5742 5745 5747 5748 5748 5749 5750 5751 5752 5753 5753 5754 5755 5755 5756 5757 5758 5758 5758 5758 5759 5759 5759 5759 5759 5759 5760 5760 5760 5760
5705 5708 5710 5712 5714 5716 5719 5722 5725 5727 5729 5730 5732 5734 5736 5738 5740 5741 5741 5743 5743 5744 5745 5745 5746 5747 5748 5748 5749 5750 5750 5751 5751 5752 5752 5752 5753 5753 5753 5754 5754 5754 5753 5753
5701 5703 5706 5707 5710 5712 5715 5717 5720 5722 5724 5725 5726 5728 5730 5732 5734 5735 5736 5736 5736 5737 5737 5738 5739 5739 5740 5740 5741 5742 5743 5744 5744 5745 5745 5745 5746 5746 5746 5747 5747 5747 5747 5747
5696 5699 5701 5703 5705 5707 5710 5712 5715 5717 5719 5720 5722 5723 5724 5726 5727 5729 5729 5729 5729 5730 5731 5731 5732 5732 5732 5733 5733 5734 5735 5736 5737 5737 5738 5738 5739 5739 5740 5740 5740 5740 5740 5739
5693 5695 5697 5699 5701 5703 5705 5707 5710 5712 5713 5715 5717 5718 5719 5720 5721 5722 5723 5723 5723 5724 5724 5725 5725 5726 5726 5726 5726 5727 5728 5728 5729 5730 5731 5731 5732 5732 5732 5733 5733 5733 5732 5732
5690 5692 5693 5696 5698 5699 5701 5703 5704 5706 5708 5710 5711 5713 5714 5714 5715 5716 5717 5717 5717 5717 5718 5718 5719 5719 5718 5719 5719 5720 5721 5721 5722 5722 5723 5724 5724 5724 5725 5725 5725 5725 5725 5724
5687 5689 5690 5692 5694 5695 5697 5698 5700 5702 5703 5704 5706 5707 5708 5709 5710 5710 5711 5711 5711 5711 5712 5712 5712 5712 5711 5712 5712 5713 5713 5714 5715 5715 5716 5716 5717 5717 5717 5717 5717 5717 5716 5716
5683 5685 5687 5689 5690 5692 5693 5695 5696 5697 5698 5699 5701 5702 5703 5703 5704 5705 5705 5705 5705 5705 5706 5706 5705 5705 5704 5705 5705 5706 5706 5706 5707 5707 5708 5708 5708 5708 5708 5708 5708 5708 5708 5708
5680 5682 5683 5685 5686 5688 5689 5690 5692 5693 5693 5694 5695 5696 5697 5698 5698 5699 5699 5699 5699 5699 5699 5699 5699 5698 5697 5698 5698 5698 5698 5699 5699 5700 5700 5700 5700 5700 5700 5700 5700 5700 5700 5699
5677 5678 5680 5681 5682 5683 5685 5686 5687 5687 5688 5689 5690 5691 5691 5692 5692 5693 5693 5693 5692 5692 5692 5692 5692 5692 5691 5691 5691 5691 5692 5692 5692 5692 5692 5693 5693 5693 5692 5692 5692 5691 5691 5691
5673 5674 5675 5677 5678 5679 5680 5681 5681 5682 5683 5684 5684 5685 5685 5686 5686 5686 5686 5686 5686 5686 5686 5685 5685 5685 5685 5685 5685 5685 5686 5686 5686 5686 5686 5686 5685 5685 5684 5684 5684 5683 5683 5682
5669 5670 5671 5672 5673 5674 5675 5675 5676 5677 5677 5677 5678 5679 5679 5680 5680 5680 5680 5680 5679 5679 5679 5679 5678 5679 5679 5679 5679 5679 5679 5680 5680 5680 5679 5679 5678 5678 5677 5677 5676 5676 5675 5675
5664 5665 5666 5667 5668 5669 5669 5670 5670 5671 5671 5671 5672 5672 5673 5673 5673 5673 5673 5673 5673 5673 5672 5672 5672 5672 5673 5673 5673 5673 5673 5673 5673 5673 5673 5672 5672 5671 5670 5670 5669 5669 5668 5667
5660 5661 5662 5662 5663 5664 5664 5665 5665 5665 5665 5666 5666 5666 5667 5667 5667 5667 5667 5667 5667 5667 5666 5666 5666 5666 5667 5667 5667 5667 5666 5666 5666 5666 5666 5666 5665 5664 5664 5663 5662 5661 5661 5660
5655 5656 5657 5658 5658 5658 5659 5659 5659 5659 5660 5660 5661 5661 5661 5661 5661 5661 5661 5661 5661 5661 5661 5661 5661 5661 5661 5661 5660 5660 5660 5660 5660 5660 5659 5659 5658 5657 5656 5656 5655 5654 5653 5652
5650 5651 5652 5653 5653 5654 5654 5654 5654 5654 5655 5655 5656 5656 5656 5656 5656 5656 5656 5655 5656 5655 5655 5655 5655 5655 5655 5655 5654 5654 5653 5653 5653 5653 5652 5651 5651 5650 5649 5648 5647 5646 5645 5644